Location: Hurstbourne Priors
(51.2000°N, 1.3667°W)
Time: 23:07:06
(UTC+00:00)

Cosmos 2333 Rocket - Pass Details

Date: 09 April 2020
Orbit: 841 x 860 km, 70.8° (Epoch: 27 May)

Event Time Altitude Azimuth Distance (km) Brightness Sun altitude
Rises 23:33:47 0° 331° (NNW) 3,409 6.4 -30.3°
Reaches altitude 10° 23:36:26 10° 340° (NNW) 2,471 5.5 -30.4°
Maximum altitude 23:41:40 37° 47° (NE) 1,291 3.3 -30.5°
Enters shadow 23:42:30 35° 66° (ENE) 1,335 3.3 -30.5°
